Tracking 18850 objects as of 22-Nov-2017
HD Live streaming from Space Station
objects crossing your sky now

FENGYUN 1C DEB

Track FENGYUN 1C DEB now!
10-day predictions


NORAD ID: 30443
Int'l Code: 1999-025AFE
Perigee: 827.6 km
Apogee: 876.0 km
Inclination: 98.8 °
Period: 101.8 minutes
Semi major axis: 7222 km
RCS: 0.034 m2 (small)
Launch date: May 10, 1999
Source: People's Republic of China (PRC)
Launch site: Taiyaun Space Center, China (TSC)

Note: This is SATELLITE DEBRIS
aabbcc
Your satellite tracking list
Your tracking list is empty




NASA's NSSDC Master Catalog

Two Line Element Set (TLE):
1 30443U 99025AFE 17325.74685838 +.00001110 +00000-0 +60063-3 0  9997
2 30443 098.7962 243.9531 0033468 143.8066 216.5381 14.14303594556732
Source of the keplerian elements: AFSPC